Regional Weather Roundup
Issued by NWS

Home | Current Version | Previous Version | Text Only | Print | Product List | Glossary On
Versions: 1 2 3 4 5 6 7 8 9 10 11 12 13 14 15 16 17 18 19 20 21 22 23 24 25 26 27 28 29 30 31 32 33 34 35 36 37 38 39 40 41 42 43 44 45 46 47 48 49 50
000
ASUS43 KOAX 241102
RWRNE

WEATHER ROUNDUP FOR NEBRASKA
NATIONAL WEATHER SERVICE OMAHA NE
600 AM CDT WED MAY 24 2017

NOTES: SATELLITE DATA IS BEING USED TO AUGMENT CLOUD COVER ABOVE
       12000 FEET.
       "FAIR" INDICATES FEW OR NO CLOUDS BELOW 12,000 FEET WITH NO
       SIGNIFICANT WEATHER AND/OR OBSTRUCTIONS TO VISIBILITY.

  * THESE STATIONS DO NOT REPORT WEATHER SUCH AS RAIN...SNOW OR FOG.

NEZ001>004-019>022-054>056-241200-
NEBRASKA PANHANDLE

CITY           SKY/WX    TMP DP  RH WIND       PRES   REMARKS
SCOTTSBLUFF    CLEAR     38  34  85 E9        29.85F WCI  31
ALLIANCE       CLEAR     32  30  92 SE6       29.86F WCI  26
CHADRON        CLEAR     42  36  79 VRB3      29.83F
GORDON         FAIR      36  33  89 W8        29.86F WCI  30
KIMBALL        CLOUDY    38  34  86 S7        29.87F WCI  32
SIDNEY         CLOUDY    30  29  96 SW7       29.89F WCI  23
$$

NEZ057>060-069>072-079>082-241200-
SOUTHWEST NEBRASKA

CITY           SKY/WX    TMP DP  RH WIND       PRES   REMARKS
NORTH PLATTE   CLOUDY    32  31  96 N3        29.88F
IMPERIAL       CLEAR     37  33  85 W3        29.91F
LEXINGTON      CLEAR     37  35  92 W7        29.88F WCI  31
MCCOOK         CLEAR     35  35 100 W6        29.89F WCI  30
OGALLALA       CLOUDY    33  32  96 W3        29.91F
$$

NEZ005>010-023>029-035>040-094-241200-
NORTH CENTRAL NEBRASKA

CITY           SKY/WX    TMP DP  RH WIND       PRES   REMARKS
VALENTINE      CLEAR     31  28  89 W6        29.87F WCI  25
AINSWORTH      CLEAR     36  36  99 W3        29.86F
BROKEN BOW     CLEAR     39  37  92 N6        29.86F WCI  35
O`NEILL        CLEAR     40  38  90 NW6       29.86F
ORD            CLEAR     39  36  89 NW6       29.86S WCI  35
THEDFORD       CLOUDY    34  33  96 W6        29.87F WCI  29
$$

NEZ041-046>049-061>064-073>077-083>087-241200-
SOUTH CENTRAL NEBRASKA

CITY           SKY/WX    TMP DP  RH WIND       PRES   REMARKS
GRAND ISLAND   CLEAR     43  42  97 NW9       29.85F
AURORA         CLEAR     44  42  91 NW9       29.84S
HASTINGS       CLEAR     45  40  82 NW10      29.86S
HEBRON         CLEAR     48  44  86 N8        29.82F
HOLDREGE       CLEAR     42  39  88 NW7       29.86F
KEARNEY *      CLEAR     43  37  81 NW6       29.87F
$$

NEZ011>018-030>034-042>045-241200-
NORTHEAST NEBRASKA

CITY           SKY/WX    TMP DP  RH WIND       PRES   REMARKS
NORFOLK        CLEAR     43  40  89 W6        29.83R
ALBION         CLEAR     42  39  89 NW7       29.84F
BLAIR          CLOUDY    47  45  91 NW7       29.77S
FREMONT        PTCLDY    45  45  98 NW6       29.80S
TEKAMAH        PTCLDY    47  44  90 NW13      29.78F
WAYNE          CLEAR     43  43  99 NW7       29.82S
$$

NEZ050>053-065>068-078-088>093-241200-
SOUTHEAST NEBRASKA

CITY           SKY/WX    TMP DP  RH WIND       PRES   REMARKS
LINCOLN        CLEAR     47  44  90 N10       29.81F
OMAHA EPPLEY   MOCLDY    50  44  80 NW13      29.76F
BEATRICE       CLEAR     46  45  95 NW8       29.79F
FALLS CITY     CLOUDY    50  47  89 NW9       29.74S
NEBRASKA CITY  CLOUDY    51  46  85 NW12      29.76S
PLATTSMOUTH    CLOUDY    49  45  83 NW9       29.76S
$$

NEZ044-045-051>053-067-241200-
OMAHA AREA

CITY           SKY/WX    TMP DP  RH WIND       PRES   REMARKS
OMAHA EPPLEY   MOCLDY    50  44  80 NW13      29.76F
BLAIR          CLOUDY    47  45  91 NW7       29.77S
FREMONT        PTCLDY    45  45  98 NW6       29.80S
MILLARD        CLOUDY    51  47  87 NW8       29.78S
OFFUTT AFB     CLOUDY    50  46  84 NW12      29.75F
PLATTSMOUTH    CLOUDY    49  45  83 NW9       29.76S
WAHOO          FAIR      46  44  93 NW9       29.79F
$$




USA.gov is the U.S. government's official web portal to all federal, state and local government web resources and services.